SL-14 DEB

基本信息
目录编号:
45286
目录名称:
SL-14 DEB
国际标识:
1991-056Y
轨道中心:
EARTH
物体状态:
在轨
发射日期:
1991-08-15 UTC
轨道信息
数据来源: 国际轨道数据
星历时间: 2026-09-11T08:03:40+0800
半长轴: 7579.171km
偏心率: 0.0023686
轨道倾角: 82.625°
近地点辐角: 321.305°
升交点赤经: 101.073°
平近点角: 38.637°
近地点: 1183.081km
远地点: 1218.987km
周期: 109.444分钟
每日圈数: 13.157405
详细信息
发射场:
PKMTR
轨道高度:
LEO
数据来源:
AOE Integration Group
参考系:
TEME
时间系统:
UTC
历元类型:
SGP4
2D轨道图
3D轨道图
轨道高度分析图
轨道倾角分析图
轨道综合分析图
查看轨道综合分析图